星链-3219 (STARLINK-3219 )

导读

STARLINK-3219是美国太空探索技术公司SpaceX星链星座的卫星,于2021年12月2日发射入轨,隶属于星链互联网星座组网卫星。星链系统旨在为全球提供低延迟、高速率的宽带互联网服务,该卫星承担部分全球网络覆盖任务,截至2026年已在轨运行约4年多,是星链星座数千颗在轨卫星之一。

Basic Information
目录编号:
49724
目录名称:
STARLINK-3219
国际标识:
2021-115A
轨道中心:
EARTH
卫星名称:
星链-3219
卫星全名:
星链-3219 (STARLINK-3219 )
卫星状态:
在轨 (已飞行1659 天)
发射日期:
2021-12-02 UTC
国别 :
美国 (US)
星等 :
--
Orbit Information
数据来源 国际轨道数据 AOE轨道数据
星历时间 2026-06-18T04:00:02+0800
4小时前
查看轨道信息
2026-06-12T00:00:00+0800
6天前
查看轨道信息
半长轴 6903.389km 6917.862km
偏心率 0.0002515 0.0001639
轨道倾角 53.159° 53.160°
近地点辐角 81.313° 70.753°
升交点赤经 59.642° 87.401°
平近点角 77.383° 32.276°
近地点 523.515km 538.591km
远地点 526.989km 540.859km
周期 95.138分钟 95.437分钟
每日圈数 15.135935 15.088462
Detailed Information
固有亮度:
5
最大亮度:
2.5
卫星平台:
Starlink v1.5
覆盖范围:
全球
运营商:
太空探索技术公司
运营商所在国:
美国
制造商(研发单位):
太空探索技术公司
制造商所在国:
美国
使用方式:
暂无
Satellite Introduction
星链(Starlink)计划是由太空探索技术公司(SpaceX)提出的一个巨型低轨卫星互联网星座项目,计划在2019年至2024年间在太空搭建由约1.2万颗卫星组成的“星链”网络,其中1584颗将部署在地球上空550千米处的近地轨道,并从2020年开始工作。该卫星仍在工作。
2D Orbit Map
3D Orbit Map
Orbit Altitude Analysis Chart
Orbit Inclination Analysis Chart
Orbit Comprehensive Analysis Chart
View Comprehensive Chart